Provo, UT

11:10 AM MST on November 15, 2019 (GMT -0700)
Provo Municipal

Weather History for KPVU - September, 2019

Change the Weather History Date:

Sunday, September 29, 2019

  Actual Average Record
Temperature  
Mean Temperature 49 °F -  
Max Temperature 55 °F 70 °F 87 °F (1989)
Min Temperature 44 °F 43 °F 32 °F (1985)
Degree Days  
Heating Degree Days 16    
Moisture  
Dew Point 43 °F    
Average Humidity 79    
Maximum Humidity 93    
Minimum Humidity 59    
Precipitation  
Precipitation 0.12 in - - ()
Sea Level Pressure  
Sea Level Pressure 29.64 in    
Wind  
Wind Speed 9 mph (NNW)    
Max Wind Speed 20 mph    
Max Gust Speed -    
Visibility 10 miles    
Events Rain , Thunderstorm    
Averages and records for this station are not official NWS values.
T = Trace of Precipitation, MM = Missing Value Source: NWS Daily Summary

Daily Weather History Graph

Daily Weather History Graph

Search for Another Location

Airport or City:

Astronomy

Sep. 29, 2019 Rise Set
Actual Time 7:21 AM MDT 7:12 PM MDT
Civil Twilight 6:54 AM MDT 7:39 PM MDT
Nautical Twilight 6:22 AM MDT 8:11 PM MDT
Astronomical Twilight 5:50 AM MDT 8:43 PM MDT
Moon 8:16 AM MDT (9/29) 8:15 PM MDT (9/29)
Length of Visible Light 12h 45m
Length of Day
11h 51m
New Moon, 1% of the Moon is Illuminated
Sep 29
New Moon
Oct 5
First Quarter
Oct 13
Full
Oct 21
Last Quarter
Oct 27
New

Hourly Weather History & Observations

Time (MDT) Temp. Windchill Dew Point Humidity Pressure Visibility Wind Dir Wind Speed Gust Speed Precip Events Conditions
12:12 AM 51.8 °F - 46.4 °F 82% 29.60 in 10.0 mi WNW 12.7 mph - 0.00 in Rain , Thunderstorm Light Rain
12:27 AM 51.8 °F - 46.4 °F 82% 29.60 in 10.0 mi NW 10.4 mph - 0.00 in Rain Light Rain
12:56 AM 51.1 °F - 46.0 °F 83% 29.45 in 10.0 mi NNE 5.8 mph - 0.00 in Rain Light Rain
1:56 AM 52.0 °F - 46.9 °F 83% 29.44 in 9.0 mi SSE 3.5 mph - 0.01 in Rain , Thunderstorm Light Rain
2:30 AM 51.8 °F - 48.2 °F 88% 29.56 in 10.0 mi Calm Calm - 0.00 in   Mostly Cloudy
2:56 AM 50.0 °F - 46.9 °F 89% 29.43 in 10.0 mi NE 3.5 mph - 0.00 in   Mostly Cloudy
3:56 AM 50.0 °F - 48.0 °F 93% 29.44 in 10.0 mi NE 8.1 mph - 0.06 in   Mostly Cloudy
4:56 AM 50.0 °F - 48.0 °F 93% 29.48 in 10.0 mi WNW 4.6 mph - 0.03 in Rain Light Rain
5:56 AM 50.0 °F - 48.0 °F 93% 29.51 in 10.0 mi ENE 4.6 mph - 0.00 in Rain Light Rain
6:56 AM 48.9 °F - 46.9 °F 93% 29.55 in 10.0 mi NW 3.5 mph - 0.01 in   Partly Cloudy
7:56 AM 52.0 °F - 48.0 °F 86% 29.58 in 10.0 mi North 6.9 mph - 0.00 in   Overcast
9:56 AM 46.9 °F - 43.0 °F 86% 29.70 in 10.0 mi NNW 10.4 mph - 0.00 in Rain Light Rain
10:56 AM 48.9 °F - 43.0 °F 80% 29.70 in 10.0 mi WNW 10.4 mph - 0.01 in   Mostly Cloudy
11:56 AM 48.9 °F - 42.1 °F 77% 29.72 in 10.0 mi NNW 11.5 mph - N/A   Overcast
12:56 PM 52.0 °F - 42.1 °F 69% 29.73 in 10.0 mi NNW 8.1 mph - N/A   Overcast
1:56 PM 54.0 °F - 41.0 °F 62% 29.72 in 10.0 mi West 9.2 mph - N/A   Mostly Cloudy
3:56 PM 53.1 °F - 39.0 °F 59% 29.75 in 10.0 mi NW 11.5 mph - N/A   Clear
4:56 PM 53.1 °F - 39.0 °F 59% 29.75 in 10.0 mi NNW 10.4 mph - N/A   Scattered Clouds
5:56 PM 50.0 °F - 39.0 °F 66% 29.77 in 10.0 mi NW 10.4 mph - N/A   Scattered Clouds
7:56 PM 48.0 °F - 37.0 °F 66% 29.79 in 10.0 mi NW 16.1 mph - N/A   Scattered Clouds
8:56 PM 46.0 °F 38.5 °F 37.9 °F 73% 29.82 in 10.0 mi NW 19.6 mph - N/A   Scattered Clouds
9:56 PM 44.1 °F 42.5 °F 35.1 °F 71% 29.84 in 10.0 mi NE 3.5 mph - N/A   Clear
10:56 PM 45.0 °F 37.9 °F 37.9 °F 76% 29.83 in 10.0 mi NW 16.1 mph - N/A   Clear